Volver al catálogo

DELTA 2 R/B(2)

LostHEO
NORAD 22051·ROCKET BODY·🇺🇸 United States

Lanzado Jul 24, 1992 desde Cape Canaveral Space Force Station

Loading…

Próximos Pases (próximas 24 horas)

TLE

ObsoletoSource: Space-Track

Época: Jul 24, 1992, 15:25 UTC

1 22051U 92044C   92206.64253209 -.00026069  15287-4  00000-0 0  9990
2 22051  28.6990 339.6840 9647955 150.7110   1.0439  0.10785260    16

Sigue DELTA 2 R/B(2) en tiempo real con AllMySat

Download on the App Store